Location: Noordwijk
(52.2400°N, 4.4500°E)
Time: 11:53:42
(UTC+00:00)

AO-85 - Pass Details

Date: 30 November 2022
Orbit: 516 x 753 km, 64.8° (Epoch: 04 January)

Event Time Altitude Azimuth Distance (km) Brightness Sun altitude
Rises 19:21:16 0° 288° (WNW) 2,893 ? -33.8°
Reaches altitude 10° 19:24:22 10° 310° (NW) 1,936 ? -34.3°
Enters shadow 19:25:17 13° 321° (NW) 1,732 ? -34.4°
